Regional Weather Roundup
Issued by NWS

Home | Current Version | Previous Version | Graphics & Text | Print | Product List | Glossary On
Versions: 1 2 3 4 5 6 7 8 9 10 11 12 13 14 15 16 17 18 19 20 21 22 23 24 25 26 27 28 29 30 31 32 33 34 35 36 37 38 39 40 41 42 43 44 45 46 47 48 49 50
000
ASUS45 KBOU 300607
RWRCO

WEATHER ROUNDUP FOR COLORADO
NATIONAL WEATHER SERVICE DENVER/BOULDER CO
1200 AM MDT SAT APR 30 2016

NOTE: "FAIR" INDICATES FEW OR NO CLOUDS BELOW 12000 FEET WITH NO
SIGNIFICANT WEATHER AND/OR OBSTRUCTIONS TO VISIBILITY.

COZ001>005-013-030-031-300700-
...NORTHWEST COLORADO...

CITY           SKY/WX    TMP DP  RH WIND       PRES   REMARKS
CRAIG          MOCLDY    34  29  82 W7        29.85S WCI  28
HAYDEN         FAIR      34  28  80 W6        29.83R WCI  29
MEEKER         MOCLDY    36  33  89 CALM      29.85S
MOUNT WERNER   NOT AVBL
STEAMBOAT SPGS CLOUDY    35  34  96 S3        29.82S
WALDEN         CLOUDY    30  28  93 NW8       29.70F WCI  23
$$

COZ006>008-011-300700-
...WEST CENTRAL VALLEYS...

CITY           SKY/WX    TMP DP  RH WIND       PRES   REMARKS
GRAND JUNCTION CLOUDY    44  38  79 E10       29.83F
MONTROSE       CLOUDY    44  35  70 SW5       29.86S
EAGLE          CLOUDY    39  37  93 CALM      29.85S
RIFLE          CLOUDY    43  38  82 NW3       29.82F
DELTA          NOT AVBL
NUCLA          NOT AVBL
$$

COZ017>023-064>068-300700-
...SOUTHWEST COLORADO...

CITY           SKY/WX    TMP DP  RH WIND       PRES   REMARKS
DURANGO        MOCLDY    38  29  70 NW5       29.83F
CORTEZ         FAIR      33  32  96 CALM      29.87F
PAGOSA SPRINGS FAIR      32  32 100 CALM      29.87S
TELLURIDE      LGT SNOW  31  31 100 SW3       29.91S VSB 3/4
WOLF CREEK PAS FOG       19  19 100 SW9       29.94S VSB 3/4 WCI   9
$$

COZ009-010-012-014-032>034-037-058>063-300700-
...CENTRAL COLORADO...

CITY           SKY/WX    TMP DP  RH WIND       PRES   REMARKS
ASPEN          LGT SNOW  33  31  92 NW3       29.83R FOG
BUENA VISTA    FLURRIES  27  25  91 SE5       29.86S WCI  22
COPPER MTN     NOT AVBL
BERTHOUD PASS  LGT SNOW  14   3  62 SE3       29.85F
COTTONWOOD PAS FOG       28  27  93 CALM      29.85F VSB 1/4
GUNNISON       FAIR      36  32  87 SW7       29.85F
KREMMLING      CLOUDY    34  30  86 CALM      29.84S
LEADVILLE      CLOUDY    22  22 100 S5        29.84S WCI  16
MONARCH PASS   CLOUDY    23  21  93 MISG      29.97S
SALIDA         FAIR      31  29  93 SE3       29.93F
SUNLIGHT       FOG      N/A N/A N/A CALM      29.91F VSB<1/4
WILKERSON PASS LGT SNOW N/A N/A N/A CALM      29.87F
$$

COZ069>075-300700-
...SAN LUIS VALLEY/SANGRE DE CRISTO MOUNTAINS...

CITY           SKY/WX    TMP DP  RH WIND       PRES   REMARKS
ALAMOSA        CLOUDY    32  31  96 E5        29.85S WCI  27
LA VETA PASS   LGT SNOW  25  23  93 MISG      29.84F
SAGUACHE       MIX PCPN  32  32 100 SE3       29.86S
$$

COZ035-036-038>040-300700-
...NORTHERN COLORADO FRONT RANGE...

CITY           SKY/WX    TMP DP  RH WIND       PRES   REMARKS
DENVER INTL AP LGT SNOW  32  29  88 N5        29.89F VSB 3/4 WCI  27
DMNS CITY PARK   N/A     32  32 100 MISG      29.90F
AURORA         LGT SNOW  32  32 100 N5        29.89F FOG     WCI  27
FRONT RANGE AP NOT AVBL
ERIE MUNI ARPT LGT SNOW  33  33 100 CALM      29.91S
BOULDER MUN AP LGT SNOW  32  32 100 CALM      29.91S
CENTENNIAL     LGT SNOW  32  31  96 N5        29.88F VSB 1   WCI  27
BROOMFIELD     LGT SNOW  32  32 100 N6        29.90S WCI  26
FORT COLLINS   CLOUDY    36  34  93 N8        29.92S
LONGMONT       LGT SNOW  36  34  94 CALM      29.93F
$$

COZ041-046-047-076>085-087-088-300700-
...PIKES PEAK/PALMER DIVIDE AND SOUTHERN FOOTHILLS...

CITY           SKY/WX    TMP DP  RH WIND       PRES   REMARKS
COLO. SPRINGS  LGT SNOW  32  29  88 CALM      29.88F FOG
A. F. ACADEMY  LGT SNOW  30  30 100 N6        29.86F FOG     WCI  24
SCHRIEVER AFB  NOT AVBL
ELLICOTT       NOT AVBL
FALCON         CLOUDY    30  28  92 NW5       29.87S WCI  25
FORT CARSON    FLURRIES  32  32 100 NW5       29.86F WCI  27
LIMON          CLOUDY    29  28  96 NW10      29.86F WCI  20
MONUMENT HILL  LGT SNOW  28  27  93 NW8       29.88S WCI  20
TRINIDAD       LGT SNOW  32  30  92 W5        29.87F FOG     WCI  27
$$

COZ042>045-048>051-090-091-300700-
...NORTHEAST COLORADO...

CITY           SKY/WX    TMP DP  RH WIND       PRES   REMARKS
GREELEY ARPT     N/A     34  34 100 CALM      29.92F
AKRON          LGT SNOW  30  29  96 N10       29.87F FOG     WCI  21
BURLINGTON     CLOUDY    33  30  88 NW14      29.84F FOG     WCI  23
WRAY           NOT AVBL
STERLING       LGT SNOW  32  32 100 N3        29.90S
HOLYOKE        NOT AVBL
FORT MORGAN    LGT SNOW  32  32  99 NW7       29.90S WCI  26
$$

COZ086-089-092>099-300700-
...SOUTHEAST COLORADO...

CITY           SKY/WX    TMP DP  RH WIND       PRES   REMARKS
PUEBLO         CLOUDY    36  34  92 CALM      29.89S
LA JUNTA       CLOUDY    37  34  89 NW9       29.88F
LAMAR          CLOUDY    37  35  92 N9        29.84F
SPRINGFIELD      N/A     35  33  92 NW14      29.83F WCI  26
$$



USA.gov is the U.S. government's official web portal to all federal, state and local government web resources and services.